Time,TemperatureF,DewpointF,PressureIn,WindDirection,WindDirectionDegrees,WindSpeedMPH,WindSpeedGustMPH,Humidity,HourlyPrecipIn,Conditions,Clouds,dailyrainin,SolarRadiationWatts/m^2,SoftwareType,DateUTC
2013-05-06 00:12:00,49.0,42.0,-100.00,West,266,2.0,5.0,78,0.00,,,0.00,0.000000,,2013-05-06 05:12:00,
2013-05-06 00:22:00,49.0,42.0,-100.00,West,266,2.0,5.0,78,0.00,,,0.00,0.000000,,2013-05-06 05:22:00,
2013-05-06 00:32:00,49.0,42.0,-100.00,West,266,2.0,5.0,78,0.00,,,0.00,0.000000,,2013-05-06 05:32:00,
2013-05-06 00:42:00,49.0,42.0,-100.00,West,266,2.0,5.0,78,0.00,,,0.00,0.000000,,2013-05-06 05:42:00,
2013-05-06 00:50:00,49.0,43.0,-100.00,West,274,2.0,6.0,79,0.00,,,0.00,0.000000,,2013-05-06 05:50:00,
2013-05-06 01:21:00,49.0,43.0,-100.00,West,274,2.0,6.0,79,0.00,,,0.00,0.000000,,2013-05-06 06:21:00,
2013-05-06 01:32:00,49.0,43.0,-100.00,West,274,2.0,6.0,79,0.00,,,0.00,0.000000,,2013-05-06 06:32:00,
2013-05-06 01:42:00,49.0,43.0,-100.00,West,274,2.0,6.0,79,0.00,,,0.00,0.000000,,2013-05-06 06:42:00,
2013-05-06 01:50:00,48.0,43.0,-100.00,WNW,283,5.0,7.0,82,0.00,,,0.00,0.000000,,2013-05-06 06:50:00,
2013-05-06 02:11:00,48.0,43.0,-100.00,WNW,283,5.0,7.0,82,0.00,,,0.00,0.000000,,2013-05-06 07:11:00,
2013-05-06 02:22:00,48.0,43.0,-100.00,WNW,283,5.0,7.0,82,0.00,,,0.00,0.000000,,2013-05-06 07:22:00,
2013-05-06 02:31:00,48.0,43.0,-100.00,WNW,283,5.0,7.0,82,0.00,,,0.00,0.000000,,2013-05-06 07:31:00,
2013-05-06 02:42:00,48.0,43.0,-100.00,WNW,283,5.0,7.0,82,0.00,,,0.00,0.000000,,2013-05-06 07:42:00,
2013-05-06 02:50:00,47.0,43.0,-100.00,WSW,258,3.0,6.0,85,0.00,,,0.00,0.000000,,2013-05-06 07:50:00,
2013-05-06 03:12:00,47.0,43.0,-100.00,WSW,258,3.0,6.0,85,0.00,,,0.00,0.000000,,2013-05-06 08:12:00,
2013-05-06 03:22:00,47.0,43.0,-100.00,WSW,258,3.0,6.0,85,0.00,,,0.00,0.000000,,2013-05-06 08:22:00,
2013-05-06 03:32:00,47.0,43.0,-100.00,WSW,258,3.0,6.0,85,0.00,,,0.00,0.000000,,2013-05-06 08:32:00,
2013-05-06 03:42:00,47.0,43.0,-100.00,WSW,258,3.0,6.0,85,0.00,,,0.00,0.000000,,2013-05-06 08:42:00,
2013-05-06 03:50:00,46.0,42.0,-100.00,WSW,250,3.0,5.0,87,0.00,,,0.00,0.000000,,2013-05-06 08:50:00,
2013-05-06 04:22:00,46.0,42.0,-100.00,WSW,250,3.0,5.0,87,0.00,,,0.00,0.000000,,2013-05-06 09:22:00,
2013-05-06 04:33:00,46.0,42.0,-100.00,WSW,250,3.0,5.0,87,0.00,,,0.00,0.000000,,2013-05-06 09:33:00,
2013-05-06 04:42:00,46.0,42.0,-100.00,WSW,250,3.0,5.0,87,0.00,,,0.00,0.000000,,2013-05-06 09:42:00,
2013-05-06 04:50:00,46.0,43.0,-100.00,WSW,254,3.0,5.0,88,0.00,,,0.00,0.000000,,2013-05-06 09:50:00,
2013-05-06 05:22:00,46.0,43.0,-100.00,WSW,254,3.0,5.0,88,0.00,,,0.00,0.000000,,2013-05-06 10:22:00,
2013-05-06 05:33:00,46.0,43.0,-100.00,WSW,254,3.0,5.0,88,0.00,,,0.00,0.000000,,2013-05-06 10:33:00,
2013-05-06 05:42:00,46.0,43.0,-100.00,WSW,254,3.0,5.0,88,0.00,,,0.00,0.000000,,2013-05-06 10:42:00,
2013-05-06 05:50:00,46.0,43.0,-100.00,WSW,253,4.0,6.0,88,0.00,,,0.00,0.000000,,2013-05-06 10:50:00,
2013-05-06 06:12:00,46.0,43.0,-100.00,WSW,253,4.0,6.0,88,0.00,,,0.00,0.000000,,2013-05-06 11:12:00,
2013-05-06 06:22:00,46.0,43.0,-100.00,WSW,253,4.0,6.0,88,0.00,,,0.00,0.000000,,2013-05-06 11:22:00,
2013-05-06 06:31:00,46.0,43.0,-100.00,WSW,253,4.0,6.0,88,0.00,,,0.00,0.000000,,2013-05-06 11:31:00,
2013-05-06 06:42:00,46.0,43.0,-100.00,WSW,253,4.0,6.0,88,0.00,,,0.00,0.000000,,2013-05-06 11:42:00,
2013-05-06 06:50:00,48.0,43.0,-100.00,WSW,243,4.0,7.0,82,0.00,,,0.00,12.000000,,2013-05-06 11:50:00,
2013-05-06 07:21:00,48.0,43.0,-100.00,WSW,243,4.0,7.0,82,0.00,,,0.00,12.000000,,2013-05-06 12:21:00,
2013-05-06 07:32:00,48.0,43.0,-100.00,WSW,243,4.0,7.0,82,0.00,,,0.00,12.000000,,2013-05-06 12:32:00,
2013-05-06 07:42:00,48.0,43.0,-100.00,WSW,243,4.0,7.0,82,0.00,,,0.00,12.000000,,2013-05-06 12:42:00,
2013-05-06 08:50:00,60.0,44.0,-100.00,WSW,251,9.0,15.0,56,-99.99,,,0.00,327.000000,,2013-05-06 13:50:00,
2013-05-06 09:11:00,60.0,44.0,-100.00,WSW,251,9.0,15.0,56,-99.99,,,0.00,327.000000,,2013-05-06 14:11:00,
2013-05-06 09:21:00,60.0,44.0,-100.00,WSW,251,9.0,15.0,56,-99.99,,,0.00,327.000000,,2013-05-06 14:21:00,
2013-05-06 09:32:00,60.0,44.0,-100.00,WSW,251,9.0,15.0,56,-99.99,,,0.00,327.000000,,2013-05-06 14:32:00,
2013-05-06 09:42:00,60.0,44.0,-100.00,WSW,251,9.0,15.0,56,-99.99,,,0.00,327.000000,,2013-05-06 14:42:00,
2013-05-06 09:50:00,64.0,43.0,-100.00,West,278,10.0,20.0,46,0.00,,,0.00,623.000000,,2013-05-06 14:50:00,
2013-05-06 10:21:00,64.0,43.0,-100.00,West,278,10.0,20.0,46,0.00,,,0.00,623.000000,,2013-05-06 15:21:00,
2013-05-06 10:33:00,64.0,43.0,-100.00,West,278,10.0,20.0,46,0.00,,,0.00,623.000000,,2013-05-06 15:33:00,
2013-05-06 10:42:00,64.0,43.0,-100.00,West,278,10.0,20.0,46,0.00,,,0.00,623.000000,,2013-05-06 15:42:00,
2013-05-06 10:50:00,67.0,44.0,-100.00,WNW,294,9.0,17.0,43,0.00,,,0.00,794.000000,,2013-05-06 15:50:00,
2013-05-06 11:13:00,67.0,44.0,-100.00,WNW,294,9.0,17.0,43,0.00,,,0.00,794.000000,,2013-05-06 16:13:00,
2013-05-06 11:23:00,67.0,44.0,-100.00,WNW,294,9.0,17.0,43,0.00,,,0.00,794.000000,,2013-05-06 16:23:00,
2013-05-06 11:32:00,67.0,44.0,-100.00,WNW,294,9.0,17.0,43,0.00,,,0.00,794.000000,,2013-05-06 16:32:00,
2013-05-06 11:42:00,67.0,44.0,-100.00,WNW,294,9.0,17.0,43,0.00,,,0.00,794.000000,,2013-05-06 16:42:00,
2013-05-06 11:50:00,70.0,44.0,-100.00,West,270,9.0,17.0,39,0.00,,,0.00,909.000000,,2013-05-06 16:50:00,
2013-05-06 12:12:00,70.0,44.0,-100.00,West,270,9.0,17.0,39,0.00,,,0.00,909.000000,,2013-05-06 17:12:00,
2013-05-06 12:23:00,70.0,44.0,-100.00,West,270,9.0,17.0,39,0.00,,,0.00,909.000000,,2013-05-06 17:23:00,
2013-05-06 12:31:00,70.0,44.0,-100.00,West,270,9.0,17.0,39,0.00,,,0.00,909.000000,,2013-05-06 17:31:00,
2013-05-06 12:42:00,70.0,44.0,-100.00,West,270,9.0,17.0,39,0.00,,,0.00,909.000000,,2013-05-06 17:42:00,
2013-05-06 12:50:00,72.0,45.0,-100.00,West,265,9.0,16.0,38,0.00,,,0.00,970.000000,,2013-05-06 17:50:00,
2013-05-06 13:12:00,72.0,45.0,-100.00,West,265,9.0,16.0,38,0.00,,,0.00,970.000000,,2013-05-06 18:12:00,
2013-05-06 13:21:00,72.0,45.0,-100.00,West,265,9.0,16.0,38,0.00,,,0.00,970.000000,,2013-05-06 18:21:00,
2013-05-06 13:31:00,72.0,45.0,-100.00,West,265,9.0,16.0,38,0.00,,,0.00,970.000000,,2013-05-06 18:31:00,
2013-05-06 13:43:00,72.0,45.0,-100.00,West,265,9.0,16.0,38,0.00,,,0.00,970.000000,,2013-05-06 18:43:00,
2013-05-06 13:50:00,73.0,45.0,-100.00,West,265,9.0,20.0,37,0.00,,,0.00,995.000000,,2013-05-06 18:50:00,
2013-05-06 14:11:00,73.0,45.0,-100.00,West,265,9.0,20.0,37,0.00,,,0.00,995.000000,,2013-05-06 19:11:00,
2013-05-06 14:22:00,73.0,45.0,-100.00,West,265,9.0,20.0,37,0.00,,,0.00,995.000000,,2013-05-06 19:22:00,
2013-05-06 14:32:00,73.0,45.0,-100.00,West,265,9.0,20.0,37,0.00,,,0.00,995.000000,,2013-05-06 19:32:00,
2013-05-06 14:41:00,73.0,45.0,-100.00,West,265,9.0,20.0,37,0.00,,,0.00,995.000000,,2013-05-06 19:41:00,
2013-05-06 14:50:00,74.0,45.0,-100.00,WNW,284,10.0,19.0,36,0.00,,,0.00,719.000000,,2013-05-06 19:50:00,
2013-05-06 15:21:00,74.0,45.0,-100.00,WNW,284,10.0,19.0,36,0.00,,,0.00,719.000000,,2013-05-06 20:21:00,
2013-05-06 15:32:00,74.0,45.0,-100.00,WNW,284,10.0,19.0,36,0.00,,,0.00,719.000000,,2013-05-06 20:32:00,
2013-05-06 15:42:00,74.0,45.0,-100.00,WNW,284,10.0,19.0,36,0.00,,,0.00,719.000000,,2013-05-06 20:42:00,
2013-05-06 15:50:00,74.0,46.0,-100.00,West,265,9.0,17.0,37,0.00,,,0.00,590.000000,,2013-05-06 20:50:00,
2013-05-06 16:11:00,74.0,46.0,-100.00,West,265,9.0,17.0,37,0.00,,,0.00,590.000000,,2013-05-06 21:11:00,
2013-05-06 16:21:00,74.0,46.0,-100.00,West,265,9.0,17.0,37,0.00,,,0.00,590.000000,,2013-05-06 21:21:00,
2013-05-06 16:32:00,74.0,46.0,-100.00,West,265,9.0,17.0,37,0.00,,,0.00,590.000000,,2013-05-06 21:32:00,
2013-05-06 16:43:00,74.0,46.0,-100.00,West,265,9.0,17.0,37,0.00,,,0.00,590.000000,,2013-05-06 21:43:00,
2013-05-06 16:50:00,70.0,48.0,-100.00,SW,234,6.0,14.0,45,0.00,,,0.00,169.000000,,2013-05-06 21:50:00,
2013-05-06 17:22:00,70.0,48.0,-100.00,SW,234,6.0,14.0,45,0.00,,,0.00,169.000000,,2013-05-06 22:22:00,
2013-05-06 17:33:00,70.0,48.0,-100.00,SW,234,6.0,14.0,45,0.00,,,0.00,169.000000,,2013-05-06 22:33:00,
2013-05-06 17:45:00,70.0,48.0,-100.00,SW,234,6.0,14.0,45,0.00,,,0.00,169.000000,,2013-05-06 22:45:00,
2013-05-06 17:50:00,71.0,49.0,-100.00,WSW,256,7.0,13.0,45,0.00,,,0.00,116.000000,,2013-05-06 22:50:00,
2013-05-06 18:22:00,71.0,49.0,-100.00,WSW,256,7.0,13.0,45,0.00,,,0.00,116.000000,,2013-05-06 23:22:00,
2013-05-06 18:32:00,71.0,49.0,-100.00,WSW,256,7.0,13.0,45,0.00,,,0.00,116.000000,,2013-05-06 23:32:00,
2013-05-06 18:42:00,71.0,49.0,-100.00,WSW,256,7.0,13.0,45,0.00,,,0.00,116.000000,,2013-05-06 23:42:00,
2013-05-06 18:50:00,69.0,48.0,-100.00,West,260,5.0,13.0,47,0.00,,,0.00,49.000000,,2013-05-06 23:50:00,
2013-05-06 19:21:00,69.0,48.0,-100.00,West,260,5.0,13.0,47,0.00,,,0.00,49.000000,,2013-05-07 00:21:00,
2013-05-06 19:31:00,69.0,48.0,-100.00,West,260,5.0,13.0,47,0.00,,,0.00,49.000000,,2013-05-07 00:31:00,
2013-05-06 19:41:00,69.0,48.0,-100.00,West,260,5.0,13.0,47,0.00,,,0.00,49.000000,,2013-05-07 00:41:00,
2013-05-06 19:50:00,67.0,49.0,-100.00,WSW,252,2.0,9.0,53,0.00,,,0.00,14.000000,,2013-05-07 00:50:00,
2013-05-06 20:11:00,67.0,49.0,-100.00,WSW,252,2.0,9.0,53,0.00,,,0.00,14.000000,,2013-05-07 01:11:00,
2013-05-06 20:21:00,67.0,49.0,-100.00,WSW,252,2.0,9.0,53,0.00,,,0.00,14.000000,,2013-05-07 01:21:00,
2013-05-06 20:32:00,67.0,49.0,-100.00,WSW,252,2.0,9.0,53,0.00,,,0.00,14.000000,,2013-05-07 01:32:00,
2013-05-06 20:42:00,67.0,49.0,-100.00,WSW,252,2.0,9.0,53,0.00,,,0.00,14.000000,,2013-05-07 01:42:00,
2013-05-06 20:50:00,64.0,52.0,-100.00,WSW,237,2.0,8.0,64,0.00,,,0.00,0.000000,,2013-05-07 01:50:00,
2013-05-06 21:11:00,64.0,52.0,-100.00,WSW,237,2.0,8.0,64,0.00,,,0.00,0.000000,,2013-05-07 02:11:00,
2013-05-06 21:21:00,64.0,52.0,-100.00,WSW,237,2.0,8.0,64,0.00,,,0.00,0.000000,,2013-05-07 02:21:00,
2013-05-06 21:32:00,64.0,52.0,-100.00,WSW,237,2.0,8.0,64,0.00,,,0.00,0.000000,,2013-05-07 02:32:00,
2013-05-06 21:41:00,64.0,52.0,-100.00,WSW,237,2.0,8.0,64,0.00,,,0.00,0.000000,,2013-05-07 02:41:00,
2013-05-06 21:50:00,63.0,51.0,-100.00,WNW,285,2.0,6.0,65,0.00,,,0.00,0.000000,,2013-05-07 02:50:00,
2013-05-06 22:22:00,63.0,51.0,-100.00,WNW,285,2.0,6.0,65,0.00,,,0.00,0.000000,,2013-05-07 03:22:00,
2013-05-06 22:32:00,63.0,51.0,-100.00,WNW,285,2.0,6.0,65,0.00,,,0.00,0.000000,,2013-05-07 03:32:00,
2013-05-06 22:42:00,63.0,51.0,-100.00,WNW,285,2.0,6.0,65,0.00,,,0.00,0.000000,,2013-05-07 03:42:00,
2013-05-06 22:50:00,64.0,51.0,-100.00,NW,314,2.0,5.0,63,0.00,,,0.00,0.000000,,2013-05-07 03:50:00,
2013-05-06 23:23:00,64.0,51.0,-100.00,NW,314,2.0,5.0,63,0.00,,,0.00,0.000000,,2013-05-07 04:23:00,
2013-05-06 23:33:00,64.0,51.0,-100.00,NW,314,2.0,5.0,63,0.00,,,0.00,0.000000,,2013-05-07 04:33:00,
2013-05-06 23:42:00,64.0,51.0,-100.00,NW,314,2.0,5.0,63,0.00,,,0.00,0.000000,,2013-05-07 04:42:00,
2013-05-06 23:50:00,62.0,52.0,-100.00,NW,309,2.0,6.0,71,0.00,,,0.00,0.000000,,2013-05-07 04:50:00,